Wind_Gust
10 10 10 10 9 8 10 10 9 9 8 8 7 8 9 9 8 7 7 8 9 10 11 10 10 10 10 11 12 12 11 11 11 11 11 11 10 10 11 11 10 11
11 11 10 9 9 9 9 9 10 10 10 9 7 7 8 7 7 7 8 8 9 10 10 9 9 10 10 12 12 12 12 11 12 11 11 11 10 10 11 10 10 10
12 12 12 11 11 11 11 11 10 10 10 9 9 7 7 7 7 8 7 8 9 9 8 8 9 10 10 11 11 11 11 11 12 11 11 11 11 11 10 9 9 10
14 14 13 12 11 12 13 13 12 12 11 11 10 9 8 7 7 8 8 8 9 9 8 8 8 9 10 11 11 11 10 10 11 10 10 11 11 11 11 9 9 9
15 15 14 12 12 11 12 14 15 13 13 11 10 10 9 8 8 9 9 9 9 9 8 9 8 9 9 10 11 10 9 10 10 10 11 11 11 11 11 10 11 10
16 17 15 14 12 12 13 14 15 15 14 12 12 10 9 8 8 10 10 10 9 9 9 8 9 9 10 9 9 10 10 10 10 10 11 11 11 11 10 10 10 11
16 16 14 14 12 13 13 14 13 13 14 13 12 11 10 10 10 11 11 10 10 10 9 9 9 9 9 8 9 10 10 10 10 11 11 10 10 10 10 10 11 11
17 16 15 14 13 12 13 14 14 14 13 13 12 11 11 11 11 11 11 12 10 11 10 10 9 10 8 8 9 10 10 9 10 10 10 10 9 11 11 10 10 11
17 16 15 13 13 13 14 16 16 15 15 15 15 13 12 12 11 12 14 13 12 11 10 10 10 10 9 9 9 9 10 9 9 10 9 9 10 10 11 10 10 10
18 20 20 15 14 15 16 19 19 17 17 17 16 14 14 12 11 14 14 13 12 12 12 11 11 10 10 9 10 10 10 10 9 9 9 9 9 10 10 10 10 10
22 26 21 20 18 16 18 19 18 18 17 19 17 16 14 13 13 14 14 15 13 14 13 11 11 11 11 11 10 9 10 9 10 10 9 10 10 10 9 10 11 10
25 26 25 24 21 17 18 20 19 19 19 19 18 17 15 14 14 14 16 16 15 14 13 13 11 11 11 11 10 10 10 10 10 10 11 11 11 10 11 10 10 11
24 24 23 20 20 19 20 21 22 20 21 20 18 17 17 16 16 16 15 16 15 14 13 13 12 12 11 11 11 11 11 11 11 11 11 10 10 11 11 10 11 11
24 26 22 22 21 20 21 20 21 21 21 19 18 18 18 17 16 16 15 15 14 14 14 13 12 12 12 11 11 11 11 11 11 11 11 11 11 11 11 11 11 11
21 22 20 21 21 21 21 21 21 20 21 20 19 18 17 17 16 16 16 17 16 15 15 14 13 11 11 11 12 12 12 12 11 12 11 11 12 12 11 11 12 13
20 20 21 20 20 21 22 22 22 22 21 20 20 19 18 16 15 15 16 17 17 17 15 14 13 11 11 9 8 13 12 12 12 11 11 11 11 12 12 12 13 15
19 19 20 22 22 22 24 26 25 24 23 22 21 20 18 17 16 16 16 16 17 16 16 14 14 13 11 10 11 12 13 12 12 12 11 11 11 11 12 13 13 14
18 19 20 22 23 25 26 27 26 25 24 23 22 21 19 17 17 17 16 15 15 16 16 15 14 12 14 12 12 12 10 14 12 12 11 11 11 11 12 12 12 12
17 19 20 21 22 23 25 25 26 25 24 24 23 21 19 19 19 18 17 16 16 16 16 16 14 13 14 15 14 12 12 12 14 12 12 11 12 12 11 11 11 11
17 18 19 19 20 21 22 23 24 24 22 22 21 21 21 20 19 19 17 18 18 17 17 16 14 15 15 16 15 14 13 11 14 13 12 13 13 12 11 11 10 10
18 19 20 19 19 20 20 22 23 22 22 22 22 21 22 22 21 20 19 18 18 18 17 17 16 18 16 16 16 15 13 11 14 13 13 13 13 12 11 11 10 10
18 18 18 19 19 20 21 22 23 23 23 22 20 20 19 19 19 19 19 19 19 19 17 19 18 20 17 16 16 15 13 15 15 15 14 14 14 13 12 12 11 11
18 18 18 18 18 19 20 20 21 23 21 22 21 21 21 21 20 21 21 21 21 20 19 19 18 18 18 17 16 17 13 17 15 16 15 15 14 14 13 13 12 12
17 18 18 18 18 21 21 22 21 22 23 19 19 20 21 21 21 21 20 20 21 21 22 20 18 19 20 18 18 19 16 19 17 16 15 15 15 14 13 14 12 9
19 19 19 18 19 21 21 20 20 23 22 20 19 19 21 19 19 20 19 19 19 20 14 20 18 19 21 20 20 21 20 19 19 18 17 16 17 16 14 14 15 12
19 18 18 19 21 20 21 21 20 17 21 22 21 20 19 18 18 19 19 19 18 20 19 22 20 19 23 21 21 21 20 21 20 18 19 18 17 18 17 15 15 16
Wind_Speed
3 3 3 3 3 2 2 2 2 2 1 1 1 2 2 2 2 1 1 2 2 2 2 2 2 2 2 1 3 3 3 3 3 3 3 3 3 3 3 4 4 3
4 3 3 2 2 2 3 2 3 2 3 1 1 1 2 1 1 0 2 1 2 2 1 2 1 1 2 2 3 3 2 2 3 2 3 3 2 2 2 2 3 3
5 4 4 4 3 3 3 3 3 2 2 2 2 1 1 1 1 1 2 1 2 2 2 1 1 2 2 3 3 2 2 2 3 2 3 3 3 2 2 1 2 2
5 5 4 4 3 3 4 4 3 3 3 3 3 2 1 1 1 2 2 2 2 1 1 1 1 1 2 3 2 2 1 2 3 2 2 3 3 3 2 2 2 2
6 5 5 4 3 3 3 4 4 4 4 3 3 2 1 1 2 2 3 2 2 2 1 1 1 2 2 2 3 2 1 1 2 2 2 3 3 3 2 2 2 2
6 6 5 4 3 3 4 4 4 5 4 4 3 3 2 2 2 3 3 3 2 2 2 1 1 1 2 2 2 2 2 2 2 1 2 2 3 3 2 2 2 2
7 6 5 4 3 4 3 3 3 3 4 4 4 4 3 3 3 4 4 3 3 2 1 2 1 1 2 1 1 1 2 2 2 2 1 2 2 3 2 2 2 2
8 6 5 5 5 5 5 5 5 5 5 5 5 4 4 4 4 4 4 5 3 3 2 2 1 2 2 1 1 0 1 1 2 2 2 1 1 2 3 2 2 3
7 5 5 5 7 6 7 7 6 7 7 7 6 5 5 5 4 5 6 5 5 4 3 2 1 2 2 1 1 1 1 1 1 2 1 0 1 1 2 2 2 2
8 10 10 8 7 7 8 7 7 8 8 8 8 6 6 5 4 6 6 5 5 4 4 3 2 2 1 2 2 2 2 2 1 1 0 1 1 2 2 2 2 2
12 11 10 9 10 8 9 9 9 9 8 9 8 7 6 5 5 6 6 6 5 5 5 4 3 2 2 2 2 1 2 1 1 2 1 2 2 3 2 2 2 2
12 12 12 12 10 9 9 9 9 10 9 9 9 8 7 6 6 6 6 7 6 6 5 4 3 2 2 2 2 2 2 2 2 2 2 3 3 2 3 3 2 3
11 11 11 11 11 10 9 10 11 10 10 10 9 8 8 7 7 7 6 7 6 5 5 5 4 3 2 2 2 3 3 3 3 3 3 2 2 3 3 3 3 3
11 11 11 11 11 10 10 10 10 10 10 10 9 9 8 8 7 7 7 6 6 6 5 5 4 4 3 2 2 3 3 3 3 3 4 3 3 3 3 3 3 3
10 10 9 10 9 9 8 8 10 10 10 10 9 9 7 8 7 7 7 7 7 6 6 5 5 4 3 2 3 3 3 4 3 4 3 3 4 4 3 3 4 5
10 10 10 9 9 9 9 9 10 11 11 10 10 10 9 8 7 7 7 8 8 8 7 5 5 3 6 6 7 1 4 3 4 4 3 4 3 4 4 5 5 6
9 9 10 11 11 10 8 9 12 11 11 12 11 10 9 8 7 7 7 7 8 8 7 6 5 4 9 5 3 5 2 4 4 4 4 3 3 3 4 5 5 6
8 9 9 11 12 12 12 12 13 13 13 12 11 11 10 9 8 8 8 7 7 7 7 6 5 10 11 9 5 5 7 2 4 4 3 3 3 3 4 4 4 4
5 6 7 9 11 12 13 13 13 14 13 13 13 11 10 10 10 9 8 8 7 8 8 7 5 11 12 10 8 6 6 6 5 4 4 4 3 3 3 3 4 4
2 6 8 9 9 11 11 12 13 13 12 11 11 11 11 10 10 10 9 9 9 8 8 7 6 12 12 11 10 8 8 9 4 4 4 4 4 3 3 3 3 3
6 8 9 10 9 10 10 12 12 12 12 11 10 11 11 11 10 10 9 9 9 9 8 8 6 14 13 12 11 10 10 9 4 4 4 4 4 4 3 3 3 2
7 8 9 9 9 10 11 11 12 12 12 11 10 10 9 9 9 9 10 10 10 10 8 9 8 16 14 13 12 12 10 6 5 5 5 5 5 4 4 3 3 3
4 7 8 7 7 7 8 9 10 12 11 10 10 10 10 10 10 10 10 10 11 10 10 9 8 13 15 14 13 12 10 7 6 6 5 6 5 5 4 4 4 4
7 6 7 6 6 5 6 9 10 9 9 4 6 8 10 11 10 10 10 10 11 11 11 10 8 13 16 15 14 14 12 8 7 6 7 6 6 5 5 4 4 6
8 8 7 5 8 10 10 9 7 2 5 5 8 7 8 8 9 9 9 9 9 10 11 11 8 11 16 16 15 16 13 9 8 7 7 7 6 6 5 5 6 5
8 9 8 7 4 9 8 7 2 5 8 7 8 9 8 8 8 9 9 9 9 10 9 11 10 9 14 17 17 16 16 10 8 8 8 8 7 7 6 6 7 6
Wind_Direction
202 203 200 197 196 181 174 191 172 155 143 125 42 48 51 46 54 92 100 70 51 67 59 62 60 29 8 29 8 344 4 4 36 3 38 20 50 25 23 20 25 13
207 212 220 209 193 180 176 194 169 174 141 151 93 87 74 56 65 135 109 117 97 69 84 74 48 26 6 357 1 356 343 20 40 25 63 39 45 75 47 29 32 2
210 209 214 216 215 186 186 183 177 176 154 152 127 179 105 61 188 151 183 147 109 103 107 87 40 32 18 8 354 359 18 31 38 51 60 66 56 50 71 18 51 3
211 217 223 218 218 199 187 185 181 179 166 167 185 164 161 123 198 184 164 204 148 134 77 53 36 31 18 13 348 33 21 45 31 26 69 70 51 45 35 43 36 18
210 212 220 226 215 200 196 198 189 187 181 181 179 189 200 193 201 194 197 183 187 167 165 122 63 33 356 22 8 24 20 60 43 23 46 64 58 36 30 32 40 55
205 211 213 213 203 200 207 215 200 194 182 186 197 208 198 240 237 210 202 204 193 195 180 151 101 31 17 11 27 26 12 31 54 16 46 55 68 53 39 29 65 77
199 201 202 201 199 202 217 217 226 228 199 202 200 214 209 226 227 226 206 208 199 204 202 161 158 81 20 357 45 48 31 19 6 13 17 49 59 80 65 43 42 60
200 195 193 196 199 202 206 207 213 218 213 213 216 206 218 228 223 220 210 217 214 199 192 165 160 80 23 5 34 117 83 349 346 338 345 66 14 86 84 77 42 41
191 177 170 198 202 208 209 206 208 218 211 214 216 205 212 221 219 207 218 210 191 208 191 170 150 89 44 37 44 334 354 25 332 346 326 311 172 87 87 89 91 80
159 152 168 190 193 202 208 206 222 216 208 213 216 209 206 209 215 213 211 208 201 199 184 185 163 143 104 44 27 10 346 10 23 77 124 167 90 105 82 60 60 82
168 166 177 187 198 194 203 216 225 218 208 212 211 208 208 202 206 214 206 205 198 199 185 179 175 152 122 120 112 44 36 59 63 77 109 101 94 89 67 59 71 59
173 177 191 194 193 192 201 214 227 220 210 212 212 208 203 206 206 201 207 202 199 197 185 173 163 148 118 88 93 100 94 75 81 106 102 108 109 92 84 80 63 62
188 189 196 192 189 196 200 212 221 219 212 210 206 209 203 208 203 203 206 213 197 190 183 171 163 156 123 119 112 106 111 108 118 115 112 97 94 98 97 86 72 79
202 212 204 198 193 194 203 213 219 214 214 209 204 207 208 209 205 201 199 212 196 194 183 168 163 172 154 136 120 120 128 132 122 120 111 112 109 98 93 91 91 84
202 215 211 200 192 194 207 222 222 218 212 209 203 206 209 211 201 204 196 206 193 193 182 177 178 169 163 163 138 135 144 137 124 114 117 113 113 108 102 97 91 73
209 210 211 197 185 192 206 214 218 217 213 209 203 205 203 208 202 204 202 203 196 191 185 182 180 173 88 40 350 138 156 135 133 125 117 112 110 108 102 96 93 89
212 206 198 201 189 192 201 215 217 212 208 207 203 203 202 199 204 201 207 205 198 191 184 188 187 136 124 130 139 307 214 151 138 128 121 125 130 117 118 115 113 113
214 207 200 200 190 196 200 209 214 211 206 203 199 198 197 196 199 205 202 203 202 194 190 190 185 126 149 148 173 215 271 177 145 136 136 135 125 129 125 117 116 116
235 232 222 210 201 201 203 205 207 207 205 201 199 194 191 196 197 200 200 198 201 200 195 190 170 144 153 162 171 200 256 262 147 140 146 135 138 124 110 119 122 126
292 281 259 232 213 207 203 205 207 207 203 200 197 191 194 195 197 197 198 196 199 200 196 192 172 152 163 166 173 191 221 260 136 160 135 132 135 128 130 122 125 130
227 225 234 241 225 210 205 206 208 208 203 199 196 193 195 197 195 198 197 198 197 200 197 195 157 153 167 169 174 186 201 252 158 164 150 138 137 130 128 124 112 108
244 233 236 233 225 214 212 212 212 207 200 195 195 194 199 200 200 201 197 196 199 196 202 198 145 158 165 172 176 184 192 216 172 176 159 152 147 145 149 147 138 137
242 283 282 259 241 231 226 228 220 213 205 198 194 194 193 198 203 202 199 198 195 196 198 203 155 165 167 172 178 183 190 203 171 189 162 161 158 150 157 145 155 154
293 243 218 241 302 303 280 254 240 222 216 179 214 199 199 201 203 204 204 202 198 195 197 202 184 162 170 172 178 184 202 199 183 186 169 170 159 167 156 155 106 38
318 304 296 250 174 231 230 237 242 221 102 203 228 226 212 203 202 206 205 206 204 202 189 199 195 161 173 173 180 187 205 208 196 181 178 178 170 168 167 153 142 165
322 316 306 298 267 213 234 254 176 165 176 204 228 233 226 214 203 205 202 207 203 203 192 199 205 164 174 178 182 188 207 223 194 194 182 180 184 171 177 163 160 162